[[{"header":{"parameterUnit":"m.s-1","parameterCategory":1,"la1":30.2991,"la2":30.254,"lo1":-89.0895,"lo2":-89.0444,"dy":0.0017,"dx":0.0017,"nx":28,"ny":28,"refTime":"2023-09-26T09:00:00:Z","depth":0,"parameterNumber":2,"parameterNumberName":"U-component_of_WINDS"},"data":[0,0,0,0,0,0,0,0,0,0,0,0,0,0,0,0,0,0,0,0,0,0,0,0,0,0,0,0,0,0,0,0,0,0,0,0,0,0,0,0,0,0,0,0,0,0,0,0,0,0,0,0,0,0,0,0,0,0,-5.2757,-5.2758,0,-5.2843,-5.2844,-5.2845,-5.276,-5.2757,-5.2753,-5.275,-5.2834,-5.2839,-5.2844,0,0,0,0,0,0,0,0,0,0,0,0,0,-5.2515,-5.252,-5.2757,-5.2758,-5.2759,-5.2843,-5.2844,-5.2845,-5.2761,-5.2757,-5.2753,-5.2749,-5.2832,-5.2838,-5.2844,0,0,0,0,0,0,0,0,0,0,0,0,0,-5.2612,-5.2522,-5.2757,-5.2727,-5.2725,-5.2842,-5.2844,-5.2845,-5.2761,-5.2756,-5.2751,-5.2747,-5.283,-5.2837,-5.2845,-5.2994,0,0,-5.287,-5.2873,0,0,0,0,0,0,0,0,-5.2607,-5.2621,-5.273,-5.2729,-5.2728,-5.2786,-5.2789,-5.2895,-5.2763,-5.2748,-5.275,-5.2744,-5.2821,-5.283,-5.2857,-5.2998,-5.3002,-5.287,-5.2875,-5.2879,-5.2881,0,0,0,0,0,0,0,-5.26,-5.2617,-5.2791,-5.2732,-5.273,-5.2708,-5.2716,-5.2809,-5.2811,-5.2749,-5.2743,-5.2754,-5.282,-5.2849,-5.2858,-5.3003,-5.287,-5.2877,-5.2882,-5.2885,-5.3269,-5.3274,0,0,0,0,0,0,-5.2597,-5.2612,-5.2788,-5.2793,-5.2654,-5.2716,-5.2726,-5.2772,-5.281,-5.2811,-5.2758,-5.275,-5.2838,-5.2849,-5.2861,-5.3035,-5.2879,-5.2886,-5.2891,-5.3264,-5.327,-5.3276,0,0,0,0,0,0,-5.2593,-5.2614,-5.2784,-5.2701,-5.2721,-5.2726,-5.2779,-5.2776,-5.2806,-5.2818,-5.2817,-5.2788,-5.2834,-5.2849,-5.2962,-5.3037,-5.289,-5.2897,-5.3257,-5.3266,-5.3273,-5.3387,0,0,0,0,0,0,-5.2586,-5.2613,-5.267,-5.2703,-5.2726,-5.2886,-5.2783,-5.2782,-5.282,-5.281,-5.2845,-5.2846,-5.2832,-5.295,-5.2969,-5.3045,-5.2903,-5.3251,-5.3261,-5.3271,-5.3376,-5.3398,-5.3416,0,0,0,0,0,-5.2578,-5.2698,-5.2674,-5.2695,-5.2798,-5.289,-5.2903,-5.2885,-5.2827,-5.2883,-5.2891,-5.2845,-5.3027,-5.2962,-5.2983,-5.3062,-5.3246,-5.3258,-5.327,-5.3367,-5.3393,-5.3416,0,0,0,0,0,0,-5.2672,-5.2702,-5.2675,-5.281,-5.2849,-5.2876,-5.2946,-5.2913,-5.2967,-5.2955,-5.2929,-5.2938,-5.3056,-5.3071,-5.2999,-5.3208,-5.3126,-5.3143,-5.3193,-5.3218,-5.3238,-5.323,-5.291,0,0,0,0,0,-5.2709,-5.2783,-5.2804,-5.2921,-5.2942,-5.2942,-5.2981,-5.2964,-5.3002,-5.3017,-5.3033,-5.307,-5.3135,-5.3178,-5.3239,-5.338,-5.3384,-5.3445,-5.3465,-5.3481,-5.3494,-5.3567,-5.3593,-5.3316,-5.3316,-5.3316,0,0,-5.2785,-5.281,-5.2858,-5.2941,-5.2968,-5.3043,-5.2956,-5.3039,-5.3093,-5.3029,-5.3135,-5.3149,-5.3189,-5.3315,-5.3372,-5.3331,-5.3573,-5.3496,-5.3509,-5.3514,-5.3582,-5.3609,-5.3632,-5.3324,-5.3323,-5.3322,0,0,-5.296,-5.2989,-5.3088,-5.3119,-5.3162,-5.3162,-5.3186,-5.3219,-5.3225,-5.3333,-5.3286,-5.335,-5.3464,-5.3493,-5.3523,-5.3712,-5.3671,-5.3733,-5.3836,-5.3907,-5.3929,-5.3948,-5.4012,-5.4036,-5.3748,-5.3748,-5.3748,0,-5.3048,-5.3161,-5.3143,-5.323,-5.3267,-5.3215,-5.3314,-5.3344,-5.3405,-5.343,-5.3385,-5.3526,-5.3549,-5.3681,-5.3727,-5.3755,-5.3779,-5.3726,-5.3928,-5.3947,-5.3964,-5.4025,-5.4049,-5.3755,-5.3754,-5.3753,-5.3753,0,-5.3265,-5.3344,-5.3419,-5.3481,-5.3526,-5.3619,-5.3614,-5.3662,-5.3642,-5.3646,-5.3755,-5.3782,-5.3846,-5.3877,-5.3858,-5.4006,-5.3979,-5.3932,-5.3848,-5.3998,-5.4054,-5.4077,-5.3765,-5.3762,-5.376,-5.3759,0,0,-5.3498,-5.3551,-5.3578,-5.3605,-5.3651,-5.371,-5.3801,-5.3865,-5.3905,-5.395,-5.4023,-5.4121,-5.4078,-5.4112,-5.4096,-5.416,-5.4304,-5.4104,-5.4104,-5.4136,-5.4465,-5.4497,-5.4524,-5.4279,-5.4284,-5.4287,-5.446,0,-5.3673,-5.383,-5.3817,-5.3965,-5.4036,-5.3989,-5.4067,-5.4103,-5.411,-5.417,-5.4176,-5.4245,-5.4184,-5.4204,-5.4265,-5.4273,-5.4369,-5.4261,-5.4343,-5.4346,-5.433,-5.4554,-5.4589,-5.4751,-5.4483,-5.4487,-5.4489,0,-5.3895,-5.3949,-5.4104,-5.4139,-5.4168,-5.4239,-5.4296,-5.4356,-5.4395,-5.4395,-5.4435,-5.4408,-5.4497,-5.4416,-5.4536,-5.4464,-5.4497,-5.4507,-5.4512,-5.4515,-5.4423,-5.4559,-5.4802,-5.4825,-5.4525,-5.4522,-5.4519,0,-5.4045,-5.4157,-5.4263,-5.4288,-5.4332,-5.4382,-5.4402,-5.4437,-5.4477,-5.4527,-5.4552,-5.4613,-5.4645,-5.4692,-5.4682,-5.4624,-5.4804,-5.4722,-5.4803,-5.4804,-5.4839,-5.4836,-5.5086,-5.4869,-5.4869,-5.4868,-5.4868,0,-5.4238,-5.4333,-5.4331,-5.4396,-5.4501,-5.4487,-5.4591,-5.4605,-5.4637,-5.4702,-5.4667,-5.4729,-5.4714,-5.4776,-5.4769,-5.4868,-5.4884,-5.4885,-5.4881,-5.4885,-5.4884,-5.4903,-5.4889,-5.4875,-5.4873,-5.4872,-5.4871,0,-5.442,-5.4423,-5.4535,-5.4569,-5.4579,-5.4655,-5.4683,-5.4743,-5.4748,-5.4832,-5.4851,-5.4858,-5.4928,-5.4925,-5.5004,-5.5,-5.5121,-5.5106,-5.5107,-5.5102,-5.5182,-5.5173,-5.5449,-5.5483,-5.5248,-5.5251,-5.5252,0,-5.454,-5.4613,-5.4655,-5.4697,-5.4721,-5.479,-5.483,-5.4819,-5.4863,-5.4914,-5.4968,-5.5036,-5.5088,-5.5203,-5.5214,-5.5275,-5.5258,-5.5351,-5.5267,-5.5268,-5.5254,-5.5248,-5.5254,-5.5366,-5.5368,-5.5371,-5.5372,0,-5.4752,-5.475,-5.4811,-5.4873,-5.4923,-5.497,-5.5014,-5.505,-5.5044,-5.5094,-5.5166,-5.5208,-5.529,-5.5357,-5.5415,-5.5434,-5.5401,-5.54,-5.5421,-5.5423,-5.5419,-5.5418,-5.5147,-5.5392,-5.539,-5.5389,-5.5388,-5.5387,-5.4904,-5.4965,-5.5004,-5.5073,-5.5105,-5.5147,-5.5205,-5.5219,-5.528,-5.5346,-5.5336,-5.5417,-5.5454,-5.5529,-5.5554,-5.5615,-5.5582,-5.5614,-5.5621,-5.5627,-5.5634,-5.5414,-5.5627,-5.5626,-5.5626,-5.5625,-5.5625,0,-5.511,-5.5133,-5.5197,-5.526,-5.5314,-5.5282,-5.5329,-5.5375,-5.5447,-5.5485,-5.5539,-5.5622,-5.5687,-5.5704,-5.5766,-5.5812,-5.5799,-5.5828,-5.5822,-5.5826,-5.5663,-5.5636,-5.5838,-5.5838,-5.5838,-5.5838,-5.5838,-5.5838,-5.5223,-5.5325,-5.5328,-5.5445,-5.5467,-5.5547,-5.5576,-5.5614,-5.5644,-5.5738,-5.5793,-5.5805,-5.5835,-5.5899,-5.5956,-5.596,-5.5982,-5.6017,-5.6014,-5.586,-5.5838,-5.5818,-5.5792,-5.6024,-5.6024,-5.6172,-5.6173,-5.6174]},{"header":{"parameterUnit":"m.s-1","parameterCategory":1,"la1":30.2991,"la2":30.254,"lo1":-89.0895,"lo2":-89.0444,"dy":0.0017,"dx":0.0017,"nx":28,"ny":28,"refTime":"2023-09-26T09:00:00:Z","depth":0,"parameterNumber":3,"parameterNumberName":"V-component_of_WINDS"},"data":[0,0,0,0,0,0,0,0,0,0,0,0,0,0,0,0,0,0,0,0,0,0,0,0,0,0,0,0,0,0,0,0,0,0,0,0,0,0,0,0,0,0,0,0,0,0,0,0,0,0,0,0,0,0,0,0,0,0,0.0195,0.0196,0,0.0277,0.0278,0.0279,0.0308,0.0308,0.0308,0.0308,0.0389,0.0392,0.0394,0,0,0,0,0,0,0,0,0,0,0,0,0,0.0064,0.0066,0.0195,0.0196,0.0197,0.0277,0.0278,0.0279,0.0308,0.0308,0.0308,0.0307,0.0389,0.0392,0.0394,0,0,0,0,0,0,0,0,0,0,0,0,0,0.0131,0.0067,0.0195,0.0221,0.0225,0.0277,0.0278,0.028,0.0309,0.0308,0.0308,0.0307,0.0388,0.0391,0.0395,0.0426,0,0,0.0406,0.0408,0,0,0,0,0,0,0,0,0.0127,0.0136,0.0217,0.022,0.0223,0.0282,0.0262,0.0329,0.0309,0.0277,0.0308,0.0307,0.0354,0.036,0.0377,0.043,0.0434,0.0406,0.0409,0.041,0.0411,0,0,0,0,0,0,0,0.0122,0.0132,0.0228,0.0218,0.0222,0.0229,0.0238,0.0275,0.0317,0.0279,0.0282,0.0291,0.0356,0.0373,0.0379,0.0435,0.0406,0.041,0.0412,0.0413,0.0521,0.0522,0,0,0,0,0,0,0.0113,0.0128,0.0225,0.023,0.0173,0.0232,0.0242,0.0264,0.0316,0.0324,0.0291,0.0292,0.0367,0.0374,0.0382,0.0424,0.041,0.0414,0.0416,0.0521,0.0521,0.0522,0,0,0,0,0,0,0.011,0.0122,0.0222,0.018,0.0193,0.0235,0.0259,0.0266,0.0283,0.0326,0.0333,0.0301,0.0367,0.0377,0.0416,0.0427,0.0415,0.0419,0.052,0.0521,0.0522,0.0507,0,0,0,0,0,0,0.0106,0.012,0.0132,0.018,0.0195,0.0254,0.0259,0.0267,0.0289,0.0291,0.0337,0.0344,0.0367,0.041,0.0419,0.0432,0.0421,0.0519,0.052,0.0521,0.0507,0.0507,0.0508,0,0,0,0,0,0.0102,0.0124,0.0133,0.0144,0.0211,0.0255,0.0263,0.029,0.029,0.0303,0.0331,0.0342,0.0424,0.0414,0.0425,0.0438,0.0518,0.052,0.0521,0.0506,0.0507,0.0508,0,0,0,0,0,0,0.0075,0.013,0.0141,0.0179,0.0212,0.026,0.0276,0.029,0.0323,0.0323,0.0355,0.0365,0.0402,0.0424,0.0412,0.0473,0.0472,0.0476,0.0457,0.0458,0.0459,0.0453,0.0425,0,0,0,0,0,0.0074,0.0105,0.0151,0.0181,0.0197,0.0234,0.0254,0.0272,0.0307,0.0321,0.0351,0.0385,0.0418,0.044,0.0473,0.051,0.0522,0.0525,0.0526,0.0526,0.0529,0.0553,0.0556,0.0527,0.0527,0.0527,0,0,0.0071,0.0105,0.0122,0.0176,0.0204,0.0236,0.0245,0.0277,0.0302,0.0326,0.0365,0.0389,0.0428,0.0468,0.0486,0.0487,0.054,0.0528,0.0528,0.0531,0.0555,0.0557,0.056,0.0528,0.0528,0.0528,0,0,0.0083,0.0111,0.014,0.0168,0.0211,0.0236,0.0243,0.0289,0.0306,0.0347,0.0366,0.0395,0.0452,0.048,0.0502,0.0528,0.054,0.0537,0.0541,0.0564,0.0566,0.0568,0.0579,0.0582,0.054,0.054,0.054,0,0.0073,0.0122,0.0152,0.0185,0.0209,0.0234,0.0264,0.029,0.0341,0.0357,0.0357,0.0431,0.0459,0.0506,0.0513,0.0529,0.0539,0.0532,0.0563,0.0566,0.0568,0.0579,0.0583,0.054,0.054,0.054,0.054,0,0.011,0.0144,0.0162,0.0213,0.0239,0.0269,0.0305,0.0327,0.0345,0.037,0.0412,0.0447,0.0489,0.0502,0.0517,0.0552,0.0552,0.0557,0.0557,0.057,0.0581,0.0585,0.0539,0.0539,0.0539,0.0539,0,0,0.0105,0.0174,0.018,0.0205,0.0255,0.0282,0.0315,0.0357,0.0377,0.0412,0.0441,0.049,0.0497,0.0521,0.0541,0.0561,0.0582,0.0565,0.0566,0.0568,0.0624,0.062,0.0624,0.0591,0.0592,0.0593,0.0622,0,0.0124,0.0184,0.0214,0.0262,0.0295,0.0321,0.035,0.0384,0.0409,0.0441,0.0468,0.0503,0.0509,0.0524,0.0545,0.0575,0.0594,0.0573,0.0619,0.062,0.0608,0.063,0.0624,0.065,0.0626,0.0626,0.0627,0,0.0153,0.019,0.0241,0.0291,0.0306,0.0331,0.0374,0.0404,0.0444,0.0461,0.0491,0.0511,0.0547,0.0545,0.0597,0.0582,0.0603,0.0621,0.0622,0.0628,0.0624,0.0636,0.0658,0.0663,0.0633,0.0633,0.0632,0,0.0145,0.0208,0.0248,0.0268,0.0326,0.0344,0.0369,0.0409,0.0434,0.0471,0.0488,0.0528,0.055,0.0582,0.0613,0.0608,0.0662,0.0662,0.0678,0.0677,0.0687,0.0686,0.0714,0.07,0.07,0.07,0.07,0,0.0163,0.0194,0.0246,0.027,0.0306,0.0341,0.0375,0.0402,0.0438,0.0469,0.0494,0.0522,0.0561,0.0594,0.0618,0.0659,0.0668,0.0683,0.069,0.0682,0.068,0.0695,0.0695,0.0701,0.0701,0.0701,0.07,0,0.016,0.0196,0.0242,0.0294,0.0308,0.0333,0.0378,0.0403,0.0431,0.0469,0.048,0.0523,0.0564,0.0599,0.0651,0.0668,0.071,0.0717,0.0697,0.07,0.0715,0.0713,0.0754,0.0762,0.0742,0.0742,0.0742,0,0.017,0.0194,0.0251,0.0274,0.0299,0.0335,0.0361,0.0397,0.0423,0.0473,0.0493,0.0536,0.0572,0.0636,0.0672,0.0714,0.0722,0.0734,0.0728,0.072,0.0724,0.0722,0.0726,0.0734,0.0734,0.0734,0.0734,0,0.0182,0.02,0.0237,0.0281,0.0312,0.0348,0.0384,0.0402,0.0444,0.0473,0.0516,0.0544,0.06,0.0643,0.0689,0.0715,0.0732,0.0736,0.0742,0.0734,0.0722,0.073,0.0699,0.0734,0.0734,0.0734,0.0734,0.0734,0.0187,0.0211,0.0255,0.0296,0.0328,0.0363,0.039,0.0422,0.0459,0.0508,0.0527,0.0572,0.0614,0.0678,0.0705,0.074,0.0742,0.0751,0.0753,0.0755,0.0754,0.0716,0.0749,0.0749,0.0749,0.0749,0.0749,0,0.0202,0.0232,0.027,0.0322,0.0355,0.037,0.0412,0.0438,0.0478,0.0516,0.0553,0.0603,0.0646,0.0687,0.0731,0.0752,0.0761,0.0763,0.0762,0.0768,0.0749,0.074,0.0755,0.0755,0.0755,0.0755,0.0755,0.0755,0.0213,0.0256,0.0279,0.0339,0.0369,0.0414,0.0437,0.047,0.0501,0.0557,0.0593,0.062,0.066,0.0709,0.0749,0.076,0.0776,0.0776,0.0789,0.077,0.0769,0.0768,0.076,0.0778,0.0779,0.0805,0.0805,0.0805]}]]